sat.trackr.live / text

‹ back to catalog

STARLINK-32641

NORAD 62236 · 2024-231U

PAYLOAD ACTIVE UNKNOWN

§ Identity

Operator
Country
US
Launch date
2024-12-05
Launch site
AFWTR
Launch vehicle
Mass (kg)
RCS (m²)

Purposes: comms

External: N2YO · Heavens-Above · Gunter

§ Orbital elements

Epoch: 2026-05-25T05:02:30.061824Z

Period
94.10 min
Inclination
53.1566°
Eccentricity
0.0001037
Mean motion
15.30208114 rev/d
Perigee alt
474.5 km
Apogee alt
475.9 km
Semi-major
6,853.3 km
B*
5.5388e-4
RAAN
211.4398°
Arg perigee
68.4937°
Mean anomaly
291.6175°
Rev number
8,365

§ Raw data

STARLINK-326411 62236U 24231U   26145.21007016  .00016085  00000+0  55388-3 0  99972 62236  53.1566 211.4398 0001037  68.4937 291.6175 15.30208114 83651

JSON: /api/v1/satellites/62236 · /tle

For live sub-satellite position, see the globe view (requires WebGL).

§ Visibility from observer

Set your observer location to see the next 7 days of passes ≥ 10°. The values pass through the URL so the page stays shareable.

No JS? Fill the form by hand. The geolocation button needs JavaScript.